Weather History for Cloquet, MN

Change the Weather History Date:

Sunday, November 18, 2012

  Actual Average Record
Temperature  
Mean Temperature 47 °F -  
Max Temperature 53 °F 33 °F 55 °F (2001)
Min Temperature 41 °F 21 °F 10 °F (1996)
Degree Days  
Heating Degree Days 18    
Moisture  
Dew Point 28 °F    
Average Humidity 51    
Maximum Humidity 71    
Minimum Humidity 33    
Precipitation  
Precipitation 0.00 in - - ()
Sea Level Pressure  
Sea Level Pressure 30.10 in    
Wind  
Wind Speed 5 mph (SE)    
Max Wind Speed 10 mph    
Max Gust Speed 17 mph    
Visibility 10 miles    
Events      
Averages and records for this station are not official NWS values.
T = Trace of Precipitation, MM = Missing Value Source: NWS Daily Summary

Daily Weather History Graph

Daily Weather History Graph

Search for Another Location

Airport:

Trip Planner

Search our weather history database for the weather conditions in past years. The results will help you decide how hot, cold, wet, or windy it might be!

Date:

Astronomy

Nov. 18, 2012 Rise Set
Actual Time 7:17 AM CST 4:32 PM CST
Civil Twilight 6:44 AM CST 5:05 PM CST
Nautical Twilight 6:07 AM CST 5:42 PM CST
Astronomical Twilight 5:31 AM CST 6:18 PM CST
Moon 11:40 AM CST (11/18) 9:58 PM CST (11/18)
Length of Visible Light 10h 21m
Length of Day
9h 15m
Waxing Crescent, 30% of the Moon is Illuminated
Nov 18
Waxing Crescent
Nov 20
First Quarter
Nov 28
Full
Dec 6
Last Quarter
Dec 13
New

Hourly Weather History & Observations

Time (CST) Temp. Windchill Dew Point Humidity Pressure Visibility Wind Dir Wind Speed Gust Speed Precip Events Conditions
12:16 AM 44.6 °F 42.2 °F 35.6 °F 71% 30.19 in 10.0 mi SE 4.6 mph - N/A   Overcast
12:36 AM 44.6 °F 40.7 °F 35.6 °F 71% 30.18 in 10.0 mi ESE 6.9 mph - N/A   Overcast
12:55 AM 44.6 °F 41.4 °F 33.8 °F 66% 30.18 in 10.0 mi SE 5.8 mph - N/A   Overcast
1:16 AM 44.6 °F 42.2 °F 33.8 °F 66% 30.17 in 10.0 mi SE 4.6 mph - N/A   Overcast
1:36 AM 44.6 °F 43.1 °F 33.8 °F 66% 30.17 in 10.0 mi SE 3.5 mph - N/A   Overcast
1:55 AM 44.6 °F 43.1 °F 33.8 °F 66% 30.17 in 10.0 mi SE 3.5 mph - N/A   Overcast
2:16 AM 44.6 °F 42.2 °F 32.0 °F 61% 30.17 in 10.0 mi ESE 4.6 mph - N/A   Overcast
2:36 AM 44.6 °F 42.2 °F 32.0 °F 61% 30.17 in 10.0 mi ESE 4.6 mph - N/A   Overcast
2:56 AM 44.6 °F 43.1 °F 32.0 °F 61% 30.16 in 10.0 mi ESE 3.5 mph - N/A   Overcast
3:16 AM 44.6 °F 43.1 °F 33.8 °F 66% 30.16 in 10.0 mi ESE 3.5 mph - N/A   Overcast
3:36 AM 44.6 °F 43.1 °F 30.2 °F 57% 30.15 in 10.0 mi ESE 3.5 mph - N/A   Overcast
4:16 AM 42.8 °F 40.1 °F 32.0 °F 66% 30.14 in 10.0 mi ESE 4.6 mph - N/A   Overcast
4:36 AM 42.8 °F 40.1 °F 32.0 °F 66% 30.14 in 10.0 mi ESE 4.6 mph - N/A   Overcast
4:55 AM 42.8 °F 39.3 °F 30.2 °F 61% 30.14 in 10.0 mi ESE 5.8 mph - N/A   Overcast
5:16 AM 44.6 °F 42.2 °F 30.2 °F 57% 30.14 in 10.0 mi ESE 4.6 mph - N/A   Overcast
5:36 AM 42.8 °F 40.1 °F 30.2 °F 61% 30.14 in 10.0 mi ESE 4.6 mph - N/A   Overcast
5:55 AM 42.8 °F 41.1 °F 30.2 °F 61% 30.14 in 10.0 mi ESE 3.5 mph - N/A   Overcast
6:16 AM 42.8 °F 39.3 °F 30.2 °F 61% 30.14 in 10.0 mi ESE 5.8 mph - N/A   Overcast
6:36 AM 42.8 °F 39.3 °F 30.2 °F 61% 30.13 in 10.0 mi ESE 5.8 mph - N/A   Overcast
6:56 AM 42.8 °F 40.1 °F 30.2 °F 61% 30.13 in 10.0 mi ESE 4.6 mph - N/A   Overcast
7:16 AM 42.8 °F 39.3 °F 28.4 °F 57% 30.13 in 10.0 mi ESE 5.8 mph - N/A   Mostly Cloudy
7:36 AM 42.8 °F 40.1 °F 28.4 °F 57% 30.13 in 10.0 mi ESE 4.6 mph - N/A   Scattered Clouds
7:56 AM 41.0 °F 37.1 °F 28.4 °F 61% 30.13 in 10.0 mi ESE 5.8 mph - N/A   Clear
8:15 AM 41.0 °F 37.1 °F 28.4 °F 61% 30.12 in 10.0 mi ESE 5.8 mph - N/A   Clear
8:36 AM 42.8 °F 40.1 °F 28.4 °F 57% 30.13 in 10.0 mi ESE 4.6 mph - N/A   Scattered Clouds
8:56 AM 42.8 °F 39.3 °F 26.6 °F 53% 30.13 in 10.0 mi SE 5.8 mph - N/A   Overcast
9:15 AM 42.8 °F 38.6 °F 26.6 °F 53% 30.13 in 10.0 mi SE 6.9 mph - N/A   Overcast
9:36 AM 44.6 °F 40.7 °F 26.6 °F 49% 30.12 in 10.0 mi ESE 6.9 mph - N/A   Mostly Cloudy
9:56 AM 46.4 °F 41.9 °F 26.6 °F 46% 30.12 in 10.0 mi SE 9.2 mph - N/A   Scattered Clouds
10:16 AM 46.4 °F 42.4 °F 26.6 °F 46% 30.12 in 10.0 mi SE 8.1 mph - N/A   Clear
10:36 AM 48.2 °F - 24.8 °F 40% 30.11 in 10.0 mi SE 6.9 mph - N/A   Clear
10:56 AM 48.2 °F - 24.8 °F 40% 30.11 in 10.0 mi SSE 6.9 mph - N/A   Clear
11:16 AM 50.0 °F - 24.8 °F 37% 30.10 in 10.0 mi SSE 9.2 mph - N/A   Clear
11:36 AM 51.8 °F - 24.8 °F 35% 30.09 in 10.0 mi SSE 8.1 mph - N/A   Clear
11:55 AM 51.8 °F - 24.8 °F 35% 30.08 in 10.0 mi SSE 6.9 mph 16.1 mph N/A   Clear
12:16 PM 51.8 °F - 24.8 °F 35% 30.07 in 10.0 mi SSE 6.9 mph - N/A   Clear
12:36 PM 51.8 °F - 24.8 °F 35% 30.07 in 10.0 mi SE 6.9 mph - N/A   Clear
12:55 PM 51.8 °F - 24.8 °F 35% 30.06 in 10.0 mi SE 9.2 mph - N/A   Clear
1:16 PM 53.6 °F - 24.8 °F 33% 30.06 in 10.0 mi SSE 10.4 mph - N/A   Clear
1:36 PM 53.6 °F - 24.8 °F 33% 30.06 in 10.0 mi SSE 6.9 mph - N/A   Clear
1:55 PM 53.6 °F - 24.8 °F 33% 30.05 in 10.0 mi SSE 10.4 mph 17.3 mph N/A   Clear
2:16 PM 53.6 °F - 24.8 °F 33% 30.05 in 10.0 mi SSE 10.4 mph - N/A   Clear
2:36 PM 53.6 °F - 24.8 °F 33% 30.05 in 10.0 mi SSE 8.1 mph - N/A   Clear
2:55 PM 53.6 °F - 24.8 °F 33% 30.05 in 10.0 mi SSE 6.9 mph - N/A   Clear
3:16 PM 53.6 °F - 24.8 °F 33% 30.05 in 10.0 mi SSE 5.8 mph - N/A   Clear
3:36 PM 53.6 °F - 24.8 °F 33% 30.06 in 10.0 mi SSE 6.9 mph - N/A   Clear
3:56 PM 51.8 °F - 26.6 °F 38% 30.06 in 10.0 mi SSE 4.6 mph - N/A   Clear
4:16 PM 51.8 °F - 26.6 °F 38% 30.06 in 10.0 mi South 6.9 mph - N/A   Clear
4:36 PM 51.8 °F - 26.6 °F 38% 30.06 in 10.0 mi South 5.8 mph - N/A   Clear
4:56 PM 50.0 °F - 26.6 °F 40% 30.07 in 10.0 mi SSE 6.9 mph - N/A   Clear
5:16 PM 48.2 °F - 26.6 °F 43% 30.07 in 10.0 mi South 4.6 mph - N/A   Clear
5:36 PM 48.2 °F - 26.6 °F 43% 30.07 in 10.0 mi SSE 4.6 mph - N/A   Clear
5:56 PM 48.2 °F - 26.6 °F 43% 30.07 in 10.0 mi SSE 3.5 mph - N/A   Clear
6:16 PM 48.2 °F - 26.6 °F 43% 30.08 in 10.0 mi SSE 3.5 mph - N/A   Clear
6:36 PM 46.4 °F 45.2 °F 26.6 °F 46% 30.08 in 10.0 mi ESE 3.5 mph - N/A   Clear
6:56 PM 44.6 °F 43.1 °F 26.6 °F 49% 30.08 in 10.0 mi ESE 3.5 mph - N/A   Clear
7:16 PM 46.4 °F 45.2 °F 26.6 °F 46% 30.07 in 10.0 mi SE 3.5 mph - N/A   Clear
7:36 PM 44.6 °F 42.2 °F 26.6 °F 49% 30.07 in 10.0 mi SE 4.6 mph - N/A   Clear
7:56 PM 44.6 °F 42.2 °F 26.6 °F 49% 30.07 in 10.0 mi SE 4.6 mph - N/A   Clear
8:16 PM 42.8 °F - 28.4 °F 57% 30.07 in 10.0 mi Calm Calm - N/A   Clear
8:36 PM 42.8 °F 41.1 °F 28.4 °F 57% 30.07 in 10.0 mi ESE 3.5 mph - N/A   Clear
8:56 PM 42.8 °F 41.1 °F 28.4 °F 57% 30.06 in 10.0 mi ESE 3.5 mph - N/A   Clear
9:16 PM 42.8 °F 41.1 °F 28.4 °F 57% 30.07 in 10.0 mi SE 3.5 mph - N/A   Clear
9:35 PM 42.8 °F 41.1 °F 28.4 °F 57% 30.06 in 10.0 mi SE 3.5 mph - N/A   Clear
9:56 PM 42.8 °F 41.1 °F 28.4 °F 57% 30.06 in 10.0 mi SSE 3.5 mph - N/A   Clear
10:16 PM 42.8 °F 41.1 °F 28.4 °F 57% 30.07 in 10.0 mi SSE 3.5 mph - N/A   Clear
10:36 PM 44.6 °F 43.1 °F 28.4 °F 53% 30.07 in 10.0 mi SSE 3.5 mph - N/A   Clear
11:16 PM 44.6 °F 41.4 °F 28.4 °F 53% 30.07 in 10.0 mi South 5.8 mph - N/A   Clear
11:36 PM 44.6 °F 40.2 °F 28.4 °F 53% 30.07 in 10.0 mi South 8.1 mph - N/A   Clear
11:56 PM 46.4 °F 43.5 °F 28.4 °F 50% 30.07 in 10.0 mi South 5.8 mph - N/A   Scattered Clouds